Theta_e
339 340 341 343 346 348 348 348 349 349 347 347 346 345 344 343 342 342 340 341 341 342 340 339 339 348 348 347 345 343 340 339 338 340 340 343 343 343 343 343 343 343 343 343 342 342 341 342 342 341 342 342 342 343 344 344 344 345 344 344 344 343 344 344 344 344 344 344 346 346 345 346 346 346 346 345 344 343 342 342 342 340 340 342 344
339 341 344 346 347 348 348 349 349 349 348 346 346 345 344 344 344 342 342 342 342 341 341 342 344 347 347 346 345 344 343 341 341 340 340 341 341 341 341 342 343 344 343 343 343 342 342 342 342 342 342 342 342 341 342 342 342 343 342 342 342 342 342 342 342 341 342 343 344 344 344 344 344 345 345 344 344 343 342 343 342 339 340 342 343
342 342 346 346 347 349 349 348 349 349 347 346 346 344 343 343 342 341 341 342 341 339 338 341 343 347 348 347 344 341 340 339 338 341 342 342 342 341 342 342 342 342 342 342 340 339 340 340 340 341 340 339 340 340 341 341 341 342 342 342 342 342 341 341 341 341 340 340 340 342 343 344 343 344 345 345 344 344 342 342 342 341 339 343 342
341 343 346 346 345 347 349 348 348 348 347 346 345 344 344 344 344 343 340 340 341 341 341 344 346 347 347 345 343 341 340 339 339 340 340 341 341 340 342 344 345 344 344 344 342 342 341 341 340 340 338 339 338 338 338 338 341 341 342 342 342 342 342 342 341 341 340 339 338 339 341 341 341 343 344 344 344 344 341 342 342 342 342 342 342
343 345 346 347 349 348 349 348 348 348 346 346 345 344 345 344 342 341 341 341 341 340 341 346 346 346 346 344 342 340 339 338 340 340 339 340 340 340 341 343 343 341 339 340 341 339 338 339 339 338 338 338 339 338 339 339 340 340 341 342 342 342 341 341 340 339 339 339 340 339 339 339 340 342 343 344 344 341 340 341 340 341 340 341 341
343 345 346 347 349 349 347 348 348 347 347 345 345 345 345 344 343 343 342 341 341 341 341 343 347 347 347 345 343 341 340 339 338 340 340 340 340 340 341 341 342 343 341 341 343 343 342 341 340 339 338 338 338 338 338 339 339 339 340 342 342 342 341 340 339 338 338 338 338 339 338 339 339 339 342 343 343 340 340 340 341 340 339 340 341
343 345 346 347 348 347 346 348 348 347 347 346 346 346 345 344 343 342 341 341 341 341 341 347 346 346 346 346 343 341 339 337 336 340 340 340 340 340 339 341 342 342 342 342 342 342 343 343 342 342 341 340 340 339 339 339 340 340 340 341 341 341 340 339 338 337 337 337 338 338 338 338 339 338 342 341 342 341 339 340 341 341 342 342 340
344 345 346 346 347 345 345 348 348 347 347 346 346 345 344 344 343 342 341 341 341 340 340 345 345 346 346 345 344 341 340 338 337 339 338 338 339 339 339 340 340 341 341 341 342 342 341 341 339 338 339 339 339 339 338 338 339 340 341 341 340 340 339 338 337 336 337 336 337 337 337 338 337 338 341 340 343 341 339 342 342 341 340 339 336
342 344 345 346 346 342 344 346 348 347 347 346 345 345 345 344 343 342 341 341 341 340 342 345 345 346 346 345 343 342 340 339 338 337 336 339 339 338 338 339 339 340 340 341 341 340 339 338 338 339 339 339 339 339 339 339 339 340 340 340 339 338 337 336 335 335 336 336 336 337 337 337 337 338 341 341 342 341 340 338 339 339 338 336 336
343 344 345 345 346 340 344 345 347 347 347 346 346 345 345 344 343 342 342 340 340 341 341 344 345 345 345 344 342 340 339 338 338 337 336 337 337 337 339 343 342 342 343 342 342 343 341 341 341 342 342 341 340 339 339 340 340 340 340 339 339 338 336 335 334 334 334 335 336 337 337 337 337 336 338 340 341 339 337 333 335 335 335 335 335
343 344 344 345 346 341 345 347 347 346 347 346 346 346 344 344 343 342 342 342 341 341 340 342 344 344 344 344 341 339 338 337 337 337 336 338 338 337 337 338 341 342 342 342 342 342 342 341 341 340 341 341 339 339 339 339 339 339 339 338 338 337 335 334 333 334 334 335 335 336 337 337 336 336 339 339 339 338 334 335 335 336 335 335 336
341 343 344 345 345 340 344 344 345 347 347 346 346 346 344 344 344 343 342 341 341 341 339 339 344 344 343 342 343 339 337 337 336 336 336 337 338 338 337 338 339 339 339 339 338 339 340 341 340 340 340 339 339 339 338 338 338 338 338 337 337 335 333 332 333 333 334 334 334 334 335 334 334 335 337 339 339 338 335 334 335 336 335 335 335
341 342 344 345 345 340 342 343 345 346 347 346 346 345 344 344 343 342 342 342 342 341 340 339 339 341 342 344 343 339 336 336 335 335 336 336 337 337 337 337 338 338 338 338 338 339 339 340 339 339 338 338 338 337 337 337 338 337 337 336 335 334 332 331 333 333 333 333 333 334 334 334 336 336 336 338 337 337 336 335 335 335 335 334 334
339 341 342 344 344 344 339 340 342 346 346 346 346 346 345 344 343 343 343 342 341 341 340 339 339 341 342 342 342 340 337 335 335 334 336 336 336 336 336 336 336 336 336 337 337 337 338 338 339 339 338 338 337 337 337 336 337 336 335 334 333 331 329 329 331 333 333 333 333 333 334 335 334 336 336 336 337 336 334 333 332 333 332 332 332
338 340 341 343 344 345 340 338 341 342 344 346 346 346 345 344 343 343 342 342 341 341 340 339 337 340 339 341 341 341 338 336 335 334 335 335 336 336 336 336 335 335 337 337 337 337 337 338 338 338 337 337 337 337 337 336 335 335 334 332 331 329 328 331 332 332 332 333 333 333 333 333 334 335 335 336 335 334 333 333 332 331 330 330 329
340 340 342 343 343 345 345 341 337 337 341 343 344 344 345 344 344 343 342 342 342 341 340 339 337 337 339 338 340 339 338 336 334 334 335 335 336 336 335 335 334 336 337 337 337 336 337 337 337 337 336 337 337 336 336 335 334 333 332 331 329 328 326 328 332 332 332 331 332 332 332 332 334 335 335 335 334 332 331 331 331 330 329 329 328
340 341 341 342 343 344 345 345 340 334 335 336 339 340 342 343 343 343 342 342 342 341 340 338 337 336 336 336 339 340 339 336 335 334 337 335 334 335 334 333 334 336 337 337 337 337 337 336 336 336 336 336 336 336 335 334 333 332 331 329 328 327 325 325 331 331 331 331 331 331 330 331 331 333 334 333 332 331 329 329 328 328 328 327 327
340 341 340 342 343 343 344 343 342 343 345 338 333 337 340 342 341 341 342 341 341 341 340 340 340 341 339 338 339 339 338 336 336 337 337 337 337 335 334 333 334 336 336 336 337 336 336 336 335 335 335 335 334 335 334 333 332 330 329 328 327 326 324 325 331 330 330 330 330 330 329 330 330 331 331 331 330 329 329 328 328 327 326 326 326
340 341 341 341 342 343 344 343 342 344 343 344 344 342 334 337 338 339 339 340 340 339 339 337 337 337 336 334 334 333 333 334 334 336 334 334 333 332 335 335 335 336 336 336 335 335 335 334 334 334 333 333 334 333 332 331 330 329 327 325 323 322 322 326 330 330 330 329 329 328 327 329 329 332 332 331 330 328 328 327 326 324 324 324 324
339 340 341 341 342 342 342 342 342 343 342 342 342 343 334 331 334 335 336 337 337 336 335 332 330 330 330 329 327 329 328 330 325 331 329 332 330 331 332 334 335 334 334 334 334 333 333 334 333 333 332 332 332 331 330 329 328 327 325 324 321 321 329 330 330 331 330 328 328 327 329 329 329 329 328 327 326 326 325 325 325 324 324 323 323
337 338 340 340 341 341 341 341 341 341 342 342 342 342 338 330 331 330 331 333 333 332 330 324 323 322 324 321 324 332 332 332 333 333 324 332 324 325 330 334 334 334 333 333 333 332 332 332 331 330 329 327 324 324 325 326 326 324 323 321 320 327 328 329 330 330 329 327 327 326 327 327 327 327 327 326 327 326 325 324 323 323 323 322 322
333 335 339 340 340 340 340 340 339 339 340 341 341 341 338 335 340 339 339 335 329 326 330 332 327 331 321 327 330 329 330 331 331 328 332 331 329 323 327 333 335 333 333 332 332 331 331 330 329 328 326 322 318 322 321 319 320 321 319 318 325 326 328 329 330 329 330 330 328 326 328 325 325 329 329 327 325 324 323 323 324 323 323 321 321
332 335 337 339 339 340 340 340 339 339 339 340 340 340 339 339 338 337 336 329 331 332 333 330 331 330 329 329 327 328 328 329 329 328 329 321 327 323 327 329 331 330 332 332 331 330 330 328 326 324 321 318 319 319 319 321 320 315 316 323 324 325 327 328 329 329 330 330 328 327 327 326 326 326 327 326 326 324 323 322 321 322 322 321 322
333 334 335 338 339 339 339 340 339 338 338 338 340 340 339 339 338 337 335 333 333 332 331 330 329 329 328 328 327 326 327 328 323 322 323 329 326 321 322 323 323 323 325 329 329 328 325 323 321 318 316 317 318 317 318 319 319 320 321 321 323 324 325 326 327 328 328 329 328 327 327 325 326 327 326 324 323 322 322 322 321 320 320 320 320
335 336 335 335 337 338 339 339 339 339 338 337 338 339 339 339 338 337 334 333 332 331 331 329 329 328 327 327 326 326 326 327 328 328 328 327 326 325 325 324 323 322 318 319 317 315 316 316 316 314 316 316 316 316 317 317 318 318 319 320 321 323 323 323 323 324 327 329 328 324 325 325 326 326 325 325 323 322 321 321 321 319 319 320 318
336 334 334 335 336 338 338 338 338 338 338 337 337 338 338 338 337 337 333 332 331 330 330 329 328 327 327 326 324 325 325 326 327 327 326 326 324 322 320 320 319 317 316 315 314 314 314 314 314 313 313 313 313 314 314 315 316 317 317 319 320 320 319 319 319 320 323 327 327 323 324 326 325 324 323 323 323 322 321 320 319 319 319 319 318
333 334 335 336 337 337 338 337 337 338 337 338 338 337 338 339 338 337 334 331 331 329 328 328 328 327 326 325 325 324 325 325 325 326 325 325 321 319 318 317 316 315 314 313 312 312 313 313 312 312 312 312 312 312 312 313 314 315 316 316 316 316 317 316 316 319 321 324 322 320 323 325 324 323 323 324 323 323 321 320 320 320 319 318 318
334 334 335 336 335 336 337 337 336 337 337 338 337 337 337 339 338 335 335 331 330 329 328 328 327 326 325 324 324 324 324 324 325 325 324 323 319 316 315 314 313 312 312 312 311 311 311 311 311 311 311 311 311 311 311 311 312 314 315 315 314 313 313 314 316 318 319 322 323 320 322 322 323 323 323 323 322 321 320 320 321 320 320 319 318
332 333 335 335 336 336 337 336 336 336 337 338 337 337 337 338 338 336 335 328 331 329 328 327 326 325 325 324 323 323 324 324 324 324 323 322 317 314 313 312 311 311 311 310 311 311 311 311 311 311 311 311 310 310 310 310 311 312 313 313 313 312 311 312 315 317 317 318 323 320 319 322 324 323 322 322 322 322 321 320 320 320 319 319 318
332 333 335 335 336 336 336 336 336 336 336 337 336 337 337 337 337 337 336 328 333 330 327 325 326 325 324 324 323 323 323 324 324 322 322 319 317 313 311 310 310 309 310 310 310 311 310 310 310 310 309 309 309 308 309 309 309 309 310 311 310 310 311 312 313 314 314 317 321 323 317 320 322 323 321 321 322 321 320 321 319 318 319 318 317
333 332 334 335 336 336 336 337 337 335 337 336 336 336 337 337 337 337 336 333 335 331 328 326 325 325 324 323 323 322 322 323 323 321 322 320 317 313 310 309 308 309 310 309 309 310 310 309 309 309 309 308 307 307 308 308 307 307 307 307 307 307 308 309 310 311 313 314 316 318 323 317 321 322 323 322 321 320 319 320 319 319 318 318 317
331 331 333 336 336 336 336 337 337 336 335 335 335 336 335 336 337 337 336 335 335 333 330 327 323 324 324 323 323 322 321 322 322 321 321 319 317 313 309 308 308 307 308 308 308 308 308 307 307 307 306 306 305 305 306 306 305 304 304 304 304 305 305 306 307 307 308 310 312 314 316 315 315 319 321 321 320 319 319 318 318 318 318 317 317
332 332 333 334 335 335 335 335 336 336 335 335 335 335 336 336 336 336 336 335 335 334 331 328 326 324 323 323 322 321 320 321 321 322 320 320 318 312 309 308 307 307 307 308 308 307 305 304 304 304 304 304 304 304 304 303 303 301 301 301 302 302 302 303 305 306 305 306 308 309 311 310 313 312 316 318 320 319 319 319 318 318 317 317 317
330 331 333 333 334 336 336 337 336 336 335 336 335 335 336 336 335 336 336 336 335 334 332 331 328 326 324 323 322 320 320 320 320 321 321 321 319 316 309 307 306 306 306 306 306 306 305 304 302 303 302 303 303 303 303 302 300 300 300 299 299 299 299 299 300 301 301 302 302 304 304 306 307 310 313 316 318 320 318 318 317 316 316 315 316
327 329 330 332 333 334 335 336 335 337 334 335 335 335 336 336 335 335 336 336 335 335 333 332 329 327 326 324 322 321 320 319 318 319 319 320 319 316 311 308 305 305 305 306 306 305 305 304 303 303 303 302 301 302 301 299 299 298 297 297 296 296 296 296 297 298 298 298 299 300 301 301 303 304 307 312 308 313 318 318 317 316 315 315 315
324 327 329 330 331 333 333 334 335 336 336 334 335 336 336 336 335 330 336 336 335 335 334 332 331 328 327 326 324 321 320 319 318 318 318 319 319 317 314 310 306 305 305 306 306 305 305 304 304 304 302 300 300 300 300 298 297 296 296 297 296 297 296 296 296 296 296 297 297 298 298 299 300 301 301 304 309 312 313 317 317 316 315 315 315
323 324 325 327 329 331 331 333 333 334 336 336 336 335 336 336 336 335 336 336 336 335 335 335 332 330 329 327 326 324 322 321 320 319 318 317 318 319 317 311 306 305 304 304 304 306 305 304 304 304 304 301 300 299 299 298 297 297 296 295 295 295 295 295 294 294 295 295 294 295 295 296 296 296 297 299 303 310 310 314 317 316 316 314 314
320 321 323 324 325 328 330 331 333 333 334 334 335 336 336 335 334 333 331 334 335 335 335 335 333 331 330 329 326 324 322 323 321 320 319 318 318 318 317 312 308 306 305 305 304 305 305 304 303 303 302 300 298 298 298 298 297 296 295 295 294 294 293 293 293 293 293 294 293 292 291 292 294 294 294 296 299 302 307 309 309 310 310 316 314
317 318 320 321 322 324 326 327 329 331 332 332 332 333 334 334 334 334 332 333 334 335 334 333 333 333 331 330 329 325 320 322 322 320 319 318 317 317 316 313 309 306 305 304 304 303 303 304 303 301 300 300 300 299 297 297 296 296 295 293 294 294 294 294 292 291 291 291 292 293 291 292 292 292 292 293 295 298 301 303 306 309 311 310 317
316 316 316 318 319 321 322 325 326 329 330 331 331 329 328 329 329 330 330 330 332 331 333 333 334 333 332 330 329 328 324 322 322 321 320 318 317 315 314 312 309 305 304 303 303 303 303 303 303 301 300 298 298 296 296 296 295 294 293 293 293 293 294 293 293 292 292 291 291 291 291 291 290 290 290 290 292 294 297 299 300 303 305 308 309
313 314 315 316 318 319 319 320 324 326 327 327 328 328 326 326 327 328 327 329 329 330 330 331 331 331 331 330 329 329 327 324 322 322 320 317 317 315 313 312 310 306 304 303 303 303 304 303 302 301 299 297 295 295 295 296 295 293 293 293 293 294 293 292 292 291 290 289 289 290 290 290 290 291 290 290 290 291 293 295 297 299 300 303 305
308 311 313 315 317 318 318 319 320 323 326 327 327 327 327 328 328 328 329 329 328 327 328 329 329 329 329 330 329 329 328 325 322 322 321 320 317 314 311 311 311 308 305 304 304 303 303 302 300 298 299 298 295 294 295 298 298 298 294 294 296 296 294 291 289 290 290 289 289 290 292 291 292 291 290 289 289 290 291 292 294 297 298 299 298
304 308 311 312 313 315 317 318 319 321 323 325 326 326 327 327 328 327 328 326 327 330 330 330 331 329 330 330 329 329 329 327 324 322 321 320 318 315 313 312 310 308 306 304 303 302 302 301 300 299 297 299 297 295 296 301 301 298 297 296 295 296 297 292 291 289 290 291 291 291 291 290 290 289 288 288 289 289 289 291 293 294 295 296 294
300 303 307 309 312 313 316 317 318 319 321 323 323 326 326 326 326 325 323 326 322 320 320 320 324 328 329 330 330 329 329 328 326 324 323 321 319 317 315 312 310 309 307 304 302 301 301 301 300 300 299 295 296 294 296 299 300 299 296 298 294 295 296 299 297 295 292 291 290 290 289 288 289 287 287 287 288 288 288 289 290 292 293 294 293
299 301 304 308 310 312 314 316 317 317 320 322 322 323 322 321 317 314 314 313 314 315 317 316 319 320 323 325 328 327 329 329 328 327 324 323 321 319 316 312 311 310 308 306 303 302 302 302 300 300 299 299 295 295 295 298 298 304 301 292 290 290 295 294 297 297 289 289 289 289 288 287 287 287 288 288 288 288 288 289 289 289 291 291 290
298 300 302 306 309 310 312 313 315 315 317 319 321 321 321 320 316 317 315 315 316 315 316 319 318 317 320 322 321 323 324 325 325 326 326 324 323 321 319 315 312 312 311 309 308 305 302 301 301 301 299 301 299 296 295 296 298 298 298 300 299 299 296 291 295 295 289 291 292 289 288 288 287 287 287 287 288 289 289 288 287 288 288 288 288
296 298 300 303 306 308 310 312 314 314 315 316 319 319 320 320 319 320 320 319 319 319 319 321 323 321 321 320 321 320 321 322 323 324 324 324 325 323 321 317 314 312 309 308 307 304 302 301 301 301 301 301 302 296 296 295 296 296 296 296 294 292 295 293 293 290 292 292 288 288 287 288 287 287 287 287 289 289 288 288 288 288 288 287 287
295 296 298 300 304 306 308 310 311 312 312 314 316 319 320 319 318 319 320 320 319 320 318 319 318 316 317 318 318 319 319 320 321 322 323 323 322 322 321 319 316 313 309 308 308 307 305 303 302 301 302 301 301 299 297 296 294 296 298 296 294 293 293 292 293 296 296 291 291 288 288 288 287 287 288 288 288 288 288 287 287 287 288 288 287
295 296 299 300 301 303 305 307 309 310 310 312 314 316 319 319 318 319 318 318 320 319 312 311 314 312 314 313 314 316 316 316 317 319 319 320 319 322 322 320 317 314 310 310 310 308 305 304 302 300 300 300 300 301 300 297 297 299 299 297 296 294 292 292 293 293 292 293 295 287 288 289 287 288 287 288 288 288 288 288 288 287 287 288 287
294 295 296 297 300 302 304 305 306 307 308 310 312 314 316 316 317 317 317 317 314 310 307 309 310 307 311 311 312 313 314 314 314 314 315 316 317 316 317 317 317 316 310 311 309 308 305 304 302 301 300 300 301 300 300 300 298 300 302 299 295 294 292 291 291 290 290 295 297 291 289 287 285 287 288 287 286 287 287 287 287 286 286 287 288
295 295 297 298 299 302 303 305 304 304 305 308 310 312 313 313 315 315 316 316 313 312 308 306 303 301 306 308 308 311 311 312 313 313 312 313 313 312 315 315 315 313 311 311 310 309 307 305 303 302 301 301 300 300 299 300 299 298 299 298 297 296 295 293 293 291 292 291 291 292 292 288 288 290 288 287 287 287 287 287 286 286 286 286 288
Wind_Speed
5 6 5 5 8 7 6 11 10 11 11 11 12 12 12 12 12 12 13 13 14 14 14 12 12 14 16 18 18 16 17 15 16 17 16 18 18 18 18 16 16 18 19 19 20 19 19 19 19 19 19 19 19 19 19 20 20 20 21 21 21 21 20 19 18 18 20 22 23 23 22 22 22 22 22 22 21 19 16 16 16 15 14 18 21
8 5 4 6 8 8 10 11 11 11 12 11 12 12 11 11 11 12 12 13 12 13 13 12 14 15 16 17 17 17 16 16 16 16 16 17 17 18 16 17 18 18 19 19 20 20 19 19 20 19 19 19 19 19 19 20 20 20 20 20 20 19 19 18 17 16 15 16 18 20 22 22 22 21 21 21 20 19 16 16 16 14 13 20 21
8 5 4 5 7 7 9 11 11 12 12 11 12 12 11 10 11 12 12 13 12 12 12 12 12 16 17 17 18 16 16 16 17 18 18 17 17 16 15 16 17 18 18 19 20 19 19 19 19 20 20 19 18 19 19 20 19 19 19 19 19 18 18 17 16 15 15 15 15 17 18 22 21 22 22 22 22 21 18 19 19 19 16 23 21
8 6 3 3 6 6 8 10 11 12 11 11 11 11 11 10 10 12 13 13 13 13 12 12 15 16 15 18 17 17 16 15 17 17 17 17 16 15 15 17 19 19 20 21 21 19 20 20 20 19 19 19 19 19 19 19 18 18 19 19 18 18 17 17 16 16 15 14 12 10 11 13 16 21 21 22 22 22 19 22 23 23 24 23 24
9 7 4 3 4 7 9 10 11 12 11 11 11 11 11 11 11 11 13 13 12 12 13 14 14 14 15 18 18 17 16 15 17 16 17 16 16 15 17 17 17 17 18 19 18 18 19 19 19 19 19 19 19 20 19 19 19 19 19 19 18 18 18 17 17 16 15 15 11 12 12 15 13 20 21 22 22 20 21 22 23 23 23 24 25
10 7 4 4 5 7 9 9 12 12 11 11 11 10 10 10 11 11 12 12 12 11 11 14 16 15 15 16 18 18 15 15 17 17 17 16 16 16 16 17 18 18 19 19 18 18 18 19 20 19 19 18 19 19 20 19 19 20 19 19 19 19 18 18 17 16 15 13 14 12 13 14 13 14 21 22 23 21 22 23 23 22 22 25 25
11 6 4 4 4 6 8 10 12 12 11 11 10 10 10 10 11 12 12 12 12 11 12 16 14 14 15 15 17 17 16 15 15 17 16 16 15 15 15 16 17 17 18 18 17 18 19 20 20 19 19 19 19 19 19 19 19 19 19 20 20 20 19 18 18 17 14 13 12 12 12 14 13 11 22 21 22 23 23 23 23 23 24 23 23
8 7 5 5 4 4 7 10 11 12 12 11 10 9 10 10 11 12 12 12 11 11 12 14 13 14 15 16 16 17 15 14 15 16 15 15 15 15 15 15 16 17 17 17 17 17 17 18 18 18 18 18 18 18 19 19 19 19 20 19 20 19 18 18 17 14 13 14 12 11 12 12 13 11 21 20 23 23 22 25 24 24 24 23 19
8 8 7 6 5 6 6 8 11 12 12 11 10 10 10 10 11 11 11 11 11 10 13 13 12 14 15 16 17 16 15 14 14 15 15 15 15 14 13 13 15 16 16 16 17 18 18 19 19 18 18 18 18 18 18 18 19 19 20 20 19 19 18 17 15 13 14 12 14 12 13 13 13 13 20 24 25 24 21 20 21 24 23 22 23
8 7 7 5 5 5 6 7 11 12 12 11 9 10 10 11 11 11 11 11 10 9 10 14 14 14 15 16 16 15 14 14 14 14 14 14 14 13 14 15 15 15 16 17 18 19 18 17 17 18 19 19 18 17 18 18 19 20 20 20 19 18 17 15 13 14 13 14 14 14 13 14 13 13 21 24 25 24 23 22 19 20 19 24 26
9 7 7 5 5 4 6 9 8 9 12 11 9 9 10 10 11 11 11 10 10 10 9 13 14 13 14 15 16 14 14 13 13 14 15 14 14 13 13 13 16 16 16 17 17 18 17 17 16 18 18 18 18 17 18 18 19 19 19 19 18 18 16 14 13 13 14 14 14 13 13 15 13 13 21 24 24 24 20 22 22 22 23 24 25
10 8 7 5 6 5 5 6 9 10 11 10 10 9 9 9 10 10 10 10 10 10 10 11 14 13 13 14 16 15 15 13 12 13 13 14 14 14 13 14 14 14 14 15 16 16 16 16 17 17 17 17 17 17 17 18 18 19 19 19 18 17 15 13 12 12 13 14 14 13 14 14 14 16 22 22 26 24 22 22 23 24 24 24 24
11 9 9 8 8 5 5 5 7 9 10 11 10 10 9 10 9 10 10 10 10 10 10 9 11 12 13 14 15 15 14 13 11 13 14 13 13 13 13 13 14 14 14 15 15 15 16 16 16 16 16 16 16 16 17 17 17 18 18 17 17 16 15 11 10 12 13 13 12 14 15 12 11 21 21 24 24 24 24 24 24 23 23 23 24
11 9 8 8 7 6 6 8 7 8 10 9 11 10 10 10 10 10 10 11 10 10 9 10 12 12 13 13 14 14 14 13 12 12 13 13 13 12 13 12 14 14 14 15 15 15 15 15 15 15 15 15 15 16 16 17 16 16 15 15 14 13 10 10 10 9 9 11 11 12 12 11 13 20 22 22 23 23 23 22 23 23 24 23 23
11 11 9 7 7 6 7 7 7 8 9 9 10 10 10 10 11 11 11 11 11 10 10 11 10 12 12 13 13 13 14 13 12 12 13 12 13 12 12 12 13 14 14 14 14 14 14 14 15 15 15 16 16 17 17 17 17 15 15 13 12 11 9 8 7 9 9 8 9 11 10 11 18 20 21 21 22 23 23 23 23 23 23 23 20
11 11 10 8 8 6 5 6 6 7 7 9 9 9 9 10 10 11 11 11 11 11 10 11 11 11 11 11 13 13 13 12 11 11 9 10 14 13 12 12 12 13 13 13 14 13 14 15 15 15 15 15 16 17 17 16 16 15 14 13 12 11 10 8 8 8 8 10 12 12 12 13 20 21 21 21 22 22 22 22 22 22 22 22 21
10 10 11 9 9 7 5 6 6 7 7 8 8 8 8 8 9 10 10 10 10 10 10 10 10 10 9 10 12 12 11 11 10 10 8 10 11 12 11 11 12 12 13 13 14 14 14 15 15 15 15 15 16 16 16 16 15 14 14 13 12 10 10 9 7 7 7 7 5 10 11 11 17 20 20 21 21 20 18 18 20 20 21 22 22
9 10 10 9 9 7 6 5 5 5 6 6 7 8 8 7 8 8 9 9 9 9 9 8 8 8 9 9 9 9 10 10 8 8 9 8 9 11 11 11 12 12 12 14 14 14 14 15 15 15 15 15 15 15 15 15 15 14 13 12 11 9 10 9 6 6 7 7 9 10 10 14 18 17 18 19 19 20 21 21 20 21 21 20 19
9 9 8 9 9 6 7 5 5 6 6 5 4 6 7 7 8 8 8 8 8 8 7 8 8 9 9 10 10 10 9 9 7 7 8 7 9 9 9 11 12 12 14 13 13 14 14 14 14 14 15 15 14 14 14 14 13 13 13 10 10 11 10 7 6 7 6 6 7 11 11 15 18 20 21 21 20 20 21 21 20 18 18 18 19
7 8 9 8 8 6 6 5 5 6 5 5 5 5 6 8 7 8 8 8 8 8 9 8 9 9 10 10 10 9 8 8 9 7 8 8 8 7 8 8 11 12 13 13 13 13 13 13 14 15 15 15 14 14 13 13 12 12 12 9 10 9 6 5 6 5 6 8 9 11 13 18 18 17 18 18 18 18 18 18 18 18 19 18 17
7 8 8 8 8 8 7 6 5 6 6 6 5 5 5 8 6 8 9 8 9 9 9 9 8 8 8 9 8 6 5 5 6 5 6 5 7 8 8 8 10 11 11 12 12 12 13 12 13 14 15 14 13 13 12 12 12 11 10 10 10 6 5 5 5 5 6 7 9 10 15 15 19 18 17 16 18 18 18 18 18 17 17 16 17
8 8 8 9 8 7 8 7 6 6 5 5 4 5 4 6 5 5 5 7 7 8 7 5 6 5 7 6 4 4 4 4 5 5 4 5 6 8 8 8 9 10 9 12 12 12 12 12 13 14 14 13 9 7 7 10 11 10 9 10 7 5 4 5 5 5 5 7 9 12 16 17 14 17 19 18 16 16 17 17 17 18 17 17 17
9 8 8 9 8 7 7 8 7 6 6 6 4 4 6 5 6 5 5 6 6 6 5 6 4 5 4 4 4 3 4 4 4 5 4 7 7 9 9 9 8 8 8 10 11 11 12 12 12 13 12 10 6 5 4 4 5 8 8 6 5 5 5 4 3 3 3 4 9 14 17 19 15 16 16 15 17 18 17 16 15 15 16 16 17
9 10 8 7 8 9 8 8 8 6 6 5 5 5 5 5 5 6 5 5 6 5 4 5 4 4 4 4 4 4 4 3 6 9 7 5 6 9 10 11 11 10 10 8 11 12 11 10 11 10 7 4 4 4 4 4 4 3 4 4 4 4 5 3 3 3 4 6 9 15 16 14 18 19 16 15 15 14 16 16 16 15 14 15 17
7 6 6 8 9 9 8 7 7 7 7 6 6 6 5 5 5 6 6 5 5 5 5 4 4 4 4 4 4 4 4 3 4 4 4 5 5 4 4 4 4 5 9 6 5 4 4 4 4 5 4 4 5 4 3 4 4 4 4 4 4 4 4 4 3 3 3 5 8 13 12 12 16 17 17 16 15 15 15 15 14 13 14 15 14
5 7 8 8 9 8 8 7 7 7 7 6 6 5 6 5 6 6 6 6 6 6 6 6 5 4 4 4 4 4 4 4 4 4 4 4 4 3 3 3 5 4 4 5 4 3 3 3 4 4 4 3 4 4 3 3 4 4 4 4 3 4 3 3 3 3 2 2 7 11 12 16 16 15 15 14 15 16 16 14 12 14 14 14 13
7 7 7 6 8 9 9 8 8 7 8 6 5 5 7 5 6 6 6 6 6 6 6 6 6 7 5 4 5 4 4 4 4 4 4 4 4 4 4 3 4 4 3 5 4 2 3 3 4 4 3 4 4 4 3 4 3 4 4 4 4 3 2 3 2 3 2 2 5 10 9 11 14 13 14 15 15 15 14 14 15 14 14 14 13
7 8 8 7 7 10 9 10 9 9 8 7 7 6 5 7 5 6 7 6 6 6 6 6 6 6 6 4 4 5 5 5 5 6 6 4 4 3 3 3 4 4 3 3 4 3 3 3 4 4 4 4 4 4 3 3 3 3 5 4 4 3 1 2 2 3 2 3 3 7 10 14 14 15 15 14 13 13 13 14 13 15 15 13 12
11 10 8 9 8 8 9 10 10 11 9 8 8 6 5 6 7 6 7 8 7 5 5 6 5 5 6 5 5 5 4 4 7 7 6 6 4 3 3 4 3 4 4 3 3 4 3 3 4 4 3 4 4 4 3 3 3 2 3 4 4 3 2 2 3 3 2 2 3 4 6 12 14 14 13 13 14 14 13 12 13 13 13 14 13
13 10 9 9 7 8 9 10 10 10 9 9 9 8 7 7 7 7 6 7 7 7 6 5 6 6 6 6 4 4 5 5 8 6 7 6 4 3 3 3 3 3 4 4 2 3 4 3 3 4 4 4 3 3 3 4 3 2 2 3 3 2 1 2 2 2 2 2 2 3 4 9 12 14 13 13 13 12 12 14 13 12 13 12 12
9 11 11 10 8 10 9 10 10 8 8 9 9 9 7 8 7 6 7 7 6 6 7 5 5 7 6 7 5 4 4 4 7 7 7 7 6 5 4 4 4 3 3 3 3 2 3 3 3 4 3 3 3 2 2 3 3 3 2 3 2 2 1 1 1 2 2 2 1 1 2 6 11 14 14 15 14 12 12 14 12 11 10 12 11
12 12 10 7 8 12 11 11 11 9 9 10 8 9 9 8 7 6 7 7 7 6 6 7 5 5 7 7 6 4 4 4 7 7 8 7 7 5 5 5 5 4 3 4 4 3 3 3 3 3 3 3 3 3 2 3 3 3 3 3 3 2 2 2 2 2 2 2 1 1 1 2 1 10 9 13 14 14 12 12 11 11 11 10 12
8 9 9 9 10 9 11 13 12 10 10 10 8 8 8 8 8 7 6 7 8 7 6 7 7 6 6 6 6 5 5 5 6 9 8 8 6 5 5 5 5 5 4 5 6 5 4 4 4 3 4 3 4 3 2 2 3 3 3 3 2 2 2 1 1 1 1 1 1 0 1 1 1 1 7 10 12 11 14 16 15 13 10 10 11
8 8 8 12 10 6 6 6 9 11 12 10 8 8 9 8 8 8 6 8 8 8 8 7 7 8 7 8 7 7 6 5 6 7 9 8 8 6 5 5 5 5 6 6 5 5 5 5 4 4 4 4 4 3 3 3 2 2 3 2 2 2 2 2 2 2 3 2 2 2 2 1 2 1 1 5 9 8 10 13 12 11 10 10 10
7 9 13 12 10 9 7 7 9 10 10 10 9 9 7 8 9 9 8 7 6 8 8 8 8 8 8 9 9 8 7 7 6 6 7 7 8 6 6 5 5 5 5 6 7 6 6 7 7 7 5 5 4 4 3 3 3 3 3 2 2 2 3 3 3 3 3 3 2 2 2 2 2 2 2 1 3 4 11 13 12 12 11 10 11
12 12 10 9 11 10 9 9 8 11 11 11 12 11 9 7 7 7 8 9 7 7 7 9 9 8 8 7 10 9 8 8 7 7 6 7 6 7 7 6 8 6 5 4 3 6 5 4 4 5 7 5 6 6 5 5 4 3 2 2 2 2 2 2 3 3 3 2 2 2 2 1 1 1 2 1 0 2 5 8 11 12 13 12 12
11 10 12 11 12 12 11 12 12 11 11 11 9 9 10 11 11 11 13 12 11 9 7 7 7 8 9 10 11 12 13 12 11 10 8 7 7 8 7 8 8 6 6 7 5 4 6 6 5 4 1 4 6 6 5 5 5 4 3 3 2 2 2 1 2 2 2 2 3 2 2 2 3 2 1 1 1 0 4 4 7 10 12 12 12
10 11 11 12 13 12 11 12 11 11 9 10 11 10 7 6 5 4 6 9 9 8 8 8 8 9 7 6 6 8 10 11 10 8 7 9 8 7 6 7 8 8 7 7 7 6 5 6 7 5 3 4 5 6 6 4 4 5 4 3 2 2 1 1 1 1 1 1 1 2 2 3 2 2 2 2 2 1 1 5 7 6 4 3 12
9 11 10 10 9 9 10 12 12 11 10 8 7 9 10 9 7 6 5 6 6 7 5 6 8 8 10 11 11 9 7 8 10 13 10 8 8 8 8 9 7 6 6 7 7 7 7 6 6 6 3 2 2 2 4 5 4 3 4 2 1 1 1 2 1 0 1 1 1 2 2 2 2 2 2 2 2 2 2 2 2 1 2 4 1
9 9 10 10 11 10 10 10 11 11 10 9 6 5 5 8 11 11 10 9 8 7 7 7 6 7 9 10 11 12 14 13 13 10 9 9 8 8 7 6 8 7 7 7 7 8 11 10 8 8 8 4 4 3 4 5 5 4 3 2 2 2 2 1 1 1 0 0 1 1 1 1 1 1 2 2 3 3 2 2 2 1 0 2 4
10 11 11 12 13 13 11 14 11 10 10 10 10 9 8 5 6 10 12 11 10 9 9 9 8 7 7 10 11 10 9 10 11 12 11 9 7 8 9 8 8 10 9 11 10 5 3 4 5 6 10 8 3 4 5 4 7 3 2 2 2 1 2 2 1 1 1 1 2 1 1 2 1 1 1 1 2 2 3 1 1 2 1 1 2
12 11 14 15 13 11 12 12 8 10 11 11 9 10 11 10 8 9 8 7 6 7 8 7 7 6 6 6 7 9 10 11 11 12 12 12 10 8 9 7 7 7 10 8 7 7 7 6 7 4 3 6 5 8 7 8 3 7 5 2 2 2 3 3 3 4 3 2 1 1 1 2 2 1 1 2 2 2 2 1 0 1 2 1 1
8 12 13 10 10 11 12 11 9 10 11 11 10 11 10 10 10 7 6 5 6 7 6 6 6 6 6 6 5 7 10 10 11 9 9 9 10 8 8 9 10 8 7 8 9 9 8 8 8 9 7 3 3 3 7 9 6 4 4 5 4 5 5 3 4 6 5 4 2 3 2 1 2 1 1 1 2 2 2 1 1 2 2 2 2
8 8 9 12 10 10 11 10 10 10 9 10 10 9 8 6 7 5 4 6 4 3 4 2 4 9 11 8 7 7 6 8 9 10 9 10 10 11 9 7 9 10 10 9 9 11 10 8 10 9 9 7 5 7 9 10 5 11 5 6 1 2 3 13 12 7 5 6 4 4 3 3 2 2 1 2 2 2 2 2 2 1 1 1 1
8 9 8 8 8 10 9 9 8 8 8 8 9 7 6 5 5 3 3 2 2 3 3 4 5 6 6 8 10 8 8 7 10 12 12 12 11 10 9 10 10 11 11 11 11 13 14 13 13 11 13 12 10 6 9 10 9 8 6 6 1 1 9 3 3 6 4 5 8 6 5 5 4 4 3 3 2 3 3 2 1 1 2 1 1
7 6 6 7 8 7 7 8 7 7 8 9 9 8 8 8 6 7 7 6 7 6 8 11 9 8 9 5 4 8 9 8 7 9 11 11 12 13 12 11 11 11 11 12 11 5 5 8 12 11 11 12 9 8 8 8 8 9 8 3 4 5 5 4 4 6 1 6 3 6 6 6 5 5 4 4 6 5 2 3 2 2 2 2 2
7 5 5 6 7 7 7 8 8 7 7 8 9 9 8 8 11 11 10 10 10 8 7 7 8 7 5 6 7 6 6 6 6 6 7 8 9 10 11 11 11 9 8 7 8 12 12 13 11 11 12 12 8 9 10 10 6 9 9 9 3 2 3 6 8 3 3 2 5 5 6 7 6 6 8 8 7 6 5 4 5 5 4 4 4
5 4 5 5 7 7 7 8 6 7 7 8 10 10 10 9 10 10 9 9 10 10 8 8 4 3 7 7 6 6 6 6 6 6 6 7 7 6 7 8 10 10 10 11 12 12 10 8 11 15 11 8 8 11 12 8 13 12 14 13 10 3 4 4 3 6 2 3 4 2 4 6 5 6 6 7 9 8 7 6 5 5 5 5 5
3 4 5 5 5 5 6 6 7 7 7 9 10 10 10 10 9 8 8 8 8 8 3 4 6 5 7 5 6 7 6 6 6 6 6 6 6 7 8 9 9 10 10 11 11 11 13 14 14 12 13 11 11 13 9 10 11 11 10 14 10 9 5 4 2 1 6 5 7 7 9 3 4 7 8 8 7 7 8 7 7 7 6 7 7
3 1 2 4 5 5 6 7 7 7 7 9 9 9 9 8 8 8 10 9 6 4 3 5 6 5 7 7 6 6 6 6 6 6 6 6 7 6 6 6 7 8 9 10 11 11 10 10 11 12 12 12 9 10 11 8 10 9 9 9 10 8 4 5 7 5 5 7 11 6 8 10 9 12 11 8 11 9 8 7 8 8 7 7 7
4 4 4 4 4 5 6 7 6 5 6 8 8 9 8 8 9 10 11 10 8 7 6 5 5 4 6 7 7 8 6 6 5 6 5 5 5 5 6 6 5 6 8 9 9 10 10 11 11 12 13 13 10 11 11 10 9 10 9 8 12 13 15 15 14 10 10 7 5 9 7 7 11 10 8 11 8 8 7 7 7 7 7 7 6
Wind_Direction
189 160 162 183 163 163 170 135 123 112 105 97 89 85 84 83 82 83 84 90 101 98 96 102 94 83 85 92 86 84 83 80 82 86 85 82 82 80 79 80 82 80 79 75 75 79 82 80 80 78 76 74 73 71 69 69 69 66 65 65 66 65 63 60 56 61 67 71 73 75 76 80 79 77 77 77 76 72 67 69 72 70 72 74 76
164 166 165 167 179 182 146 127 121 111 102 97 94 89 85 84 82 83 91 96 97 96 95 95 93 87 90 87 90 86 86 85 84 88 84 79 78 80 82 85 87 86 84 82 79 76 79 80 79 77 76 76 76 75 75 74 72 67 67 67 66 64 61 59 54 49 48 55 64 69 74 75 76 77 78 79 80 78 75 74 73 76 74 74 73
139 148 158 172 181 186 134 129 122 112 105 101 97 94 94 93 91 92 91 92 93 95 96 104 101 101 102 98 92 90 90 93 92 88 86 86 86 87 85 82 83 84 83 82 79 82 82 79 78 76 76 78 79 78 77 77 74 70 70 68 65 63 62 58 55 50 49 50 55 69 72 73 74 77 78 78 77 72 68 73 74 75 78 76 74
133 141 143 166 200 154 131 122 117 107 103 102 99 97 99 99 95 94 95 94 98 103 103 84 87 95 95 92 93 91 91 93 92 89 87 87 89 88 89 91 94 92 87 84 82 81 81 80 80 82 83 82 81 81 81 81 74 72 70 67 65 62 60 57 54 52 53 53 55 58 73 75 74 78 80 80 79 75 74 75 77 79 80 78 77
132 134 122 123 137 133 126 125 119 110 109 104 100 100 100 98 98 95 93 94 94 90 92 97 99 96 100 100 96 93 94 94 97 99 95 89 88 86 85 88 88 85 83 84 92 92 86 82 81 83 83 82 83 84 83 81 76 74 71 67 65 63 60 58 56 54 54 55 52 65 75 80 80 80 84 82 79 77 75 76 77 76 76 76 76
137 128 104 103 106 121 126 134 122 118 114 109 104 105 104 105 102 98 97 99 101 100 95 95 97 103 103 104 102 100 99 100 99 96 96 94 90 85 84 86 84 84 87 84 76 79 79 84 86 83 83 83 85 85 84 83 83 80 76 70 67 64 63 61 59 55 53 48 58 73 77 82 82 82 83 86 84 79 80 80 78 76 77 76 75
138 132 108 109 112 133 140 137 126 123 118 114 110 111 110 108 105 101 100 100 97 96 95 92 99 103 107 106 104 101 102 101 100 98 95 90 91 93 93 92 90 88 85 84 83 83 83 84 88 87 86 86 86 85 85 84 83 81 79 77 72 67 64 61 61 61 56 67 78 78 80 80 80 83 82 80 83 82 78 77 77 74 71 70 72
137 137 106 113 125 143 148 136 130 126 122 116 117 114 113 111 106 103 101 103 99 92 100 95 94 98 101 102 99 99 99 99 99 100 97 98 93 90 89 91 93 95 90 86 84 82 82 85 87 88 87 87 86 85 86 86 84 80 77 76 72 66 65 63 62 57 59 77 76 78 79 78 74 78 80 79 78 77 75 73 72 72 73 72 72
144 141 127 127 145 148 152 140 133 129 121 118 121 120 116 114 111 106 106 104 99 96 94 89 96 104 103 104 100 99 101 102 102 101 101 96 96 93 93 95 94 88 89 89 87 86 88 91 93 93 92 90 89 87 86 86 84 82 79 76 69 67 67 67 62 64 75 78 79 78 81 84 87 84 80 78 75 72 68 72 71 72 73 73 73
146 139 135 123 146 157 145 147 138 132 126 126 128 124 119 118 115 111 109 104 101 97 97 100 94 97 105 102 99 99 102 106 106 106 103 98 97 99 99 99 96 97 95 92 92 93 94 94 92 92 91 89 87 86 86 83 81 80 81 77 74 73 69 66 63 66 80 81 80 79 78 80 82 82 85 81 79 76 75 73 76 76 75 74 72
151 146 142 126 137 153 158 147 136 135 130 130 133 123 120 117 115 114 112 109 108 104 103 107 101 98 95 100 103 105 108 112 115 111 107 103 104 102 99 96 92 94 94 92 92 93 95 93 89 88 89 87 86 86 84 85 85 84 82 79 74 73 70 71 70 82 82 82 79 79 76 77 82 83 84 86 83 81 77 78 78 76 74 74 72
158 152 150 136 142 145 162 145 141 142 137 134 131 125 121 119 117 117 114 114 107 97 100 107 111 109 108 109 110 111 113 113 116 115 110 105 96 100 102 102 104 98 94 92 94 97 96 94 93 91 90 90 89 89 88 89 90 88 83 79 77 75 72 68 77 82 82 79 77 79 76 75 82 85 81 81 81 80 80 80 77 75 74 71 72
159 159 161 156 157 160 151 158 153 151 140 139 134 131 128 125 122 119 120 117 112 105 107 110 107 105 106 112 114 113 114 118 120 118 114 108 106 103 101 101 97 96 96 98 97 97 97 97 96 95 93 92 93 92 91 91 91 87 81 77 78 77 74 62 76 83 84 82 83 82 83 79 76 83 84 80 79 76 76 77 75 74 73 73 72
157 160 165 164 160 158 151 161 169 152 141 147 139 137 135 131 130 126 126 125 120 116 112 112 114 112 110 110 112 114 118 120 119 118 113 110 110 110 104 103 102 99 98 96 96 96 97 96 96 97 98 96 97 96 95 95 91 86 79 78 73 74 67 71 73 76 76 79 77 81 85 86 84 81 80 81 79 77 75 76 77 75 75 74 74
157 163 167 168 163 168 151 163 166 153 150 147 143 141 139 138 135 134 132 132 128 123 121 118 119 117 115 115 112 115 117 119 122 121 123 123 113 106 106 104 102 101 97 97 97 95 97 99 99 98 101 101 101 102 100 98 93 85 79 73 70 65 67 83 77 79 80 77 80 79 77 84 83 81 81 81 79 79 78 76 76 77 77 77 77
156 161 164 167 169 168 150 158 167 152 151 145 147 142 144 141 138 136 136 135 133 127 122 125 124 123 124 121 120 118 116 118 122 122 118 113 109 108 107 108 109 109 105 102 101 102 100 99 101 102 102 104 103 103 99 90 83 80 77 74 71 69 67 77 81 83 85 86 87 86 82 80 81 82 81 81 82 81 80 78 77 77 78 80 78
157 159 164 168 168 167 152 157 160 159 150 149 148 146 141 140 138 137 137 135 135 130 127 128 129 126 124 126 122 123 120 120 123 127 120 120 117 111 110 111 109 106 108 110 107 103 102 102 102 103 103 104 104 98 90 86 81 78 76 76 75 67 71 74 79 79 83 77 69 84 85 86 83 82 81 82 85 86 85 85 83 83 83 82 82
159 161 167 166 165 162 161 153 154 160 158 142 145 144 139 138 136 135 132 132 135 132 128 122 109 95 92 97 119 120 118 124 125 124 121 97 91 101 112 115 114 115 112 106 106 104 105 103 103 103 102 102 97 89 86 84 83 78 77 76 74 71 76 76 81 80 76 81 91 88 86 85 89 92 90 90 89 87 85 84 84 85 85 83 82
160 163 165 167 165 151 156 154 156 155 161 148 132 140 138 135 134 133 132 132 127 126 117 102 105 104 96 93 93 100 109 114 114 89 75 84 98 108 112 121 124 116 109 107 108 109 107 106 104 105 103 96 86 84 84 83 85 83 79 73 74 80 80 86 83 88 88 90 92 94 94 98 91 85 88 90 91 95 94 91 89 86 84 84 83
169 165 166 171 165 157 154 159 154 156 158 158 151 143 141 139 138 135 132 129 124 112 107 104 102 102 101 99 97 97 98 101 100 92 74 73 80 93 110 117 120 121 117 117 114 112 111 109 109 104 97 88 84 79 80 83 84 84 82 74 75 76 81 84 86 85 94 94 98 101 98 90 93 94 95 96 97 93 90 92 91 88 87 88 90
182 177 172 173 168 166 158 157 157 157 158 161 158 153 149 142 138 136 133 128 121 114 107 104 101 103 107 102 99 98 100 103 101 92 82 74 80 99 114 109 118 120 118 119 118 117 115 109 108 97 89 84 77 71 66 75 76 80 79 80 82 77 73 81 90 101 105 103 98 95 96 101 96 105 106 101 97 93 94 93 93 94 94 90 87
190 184 186 174 176 171 167 163 162 159 157 156 160 158 152 151 135 135 132 126 118 119 118 118 116 111 109 107 102 106 106 109 107 103 87 86 87 100 106 108 112 109 119 124 121 116 113 114 103 96 93 89 78 87 78 68 64 69 74 85 82 82 78 85 90 95 89 99 109 114 108 104 109 89 88 91 98 100 94 92 91 90 88 94 98
195 188 186 174 184 182 166 171 170 159 159 158 159 154 158 154 149 138 133 132 130 123 125 127 128 124 115 110 110 108 110 109 110 109 98 86 83 93 93 89 98 114 119 114 114 117 116 114 97 95 93 89 84 85 86 86 82 76 82 78 84 84 83 73 74 75 80 95 112 108 111 107 97 101 99 97 95 93 97 99 99 97 99 99 94
193 191 180 176 177 189 184 173 174 163 166 163 160 160 161 159 151 149 144 141 142 137 129 131 134 130 126 122 118 110 106 107 107 107 103 90 79 77 80 77 65 65 77 94 98 105 109 96 83 84 80 69 83 83 89 88 86 81 82 83 87 91 90 75 66 72 81 97 115 116 113 111 102 105 108 109 109 104 94 95 96 100 99 94 93
188 174 176 187 193 183 186 184 171 169 173 167 163 167 161 159 159 152 149 151 151 150 150 138 135 132 129 126 121 115 111 112 114 110 100 99 87 83 78 83 84 80 90 79 79 72 89 95 85 72 77 81 83 75 86 96 91 92 86 89 92 91 93 92 66 30 32 95 112 116 112 100 111 113 113 107 104 103 108 107 104 95 94 96 95
168 183 191 188 193 186 183 186 176 174 179 174 175 163 161 169 165 157 150 161 161 162 159 160 153 142 138 130 124 119 119 120 124 116 112 108 101 100 94 98 97 93 85 96 98 111 120 107 97 90 89 85 87 94 83 94 107 101 101 90 93 94 87 79 72 67 47 92 115 119 124 122 115 106 108 112 108 113 112 107 99 101 98 100 101
192 195 184 191 187 192 183 179 191 190 181 176 181 173 175 178 174 158 152 164 169 166 169 165 166 159 150 147 140 138 134 136 133 129 122 117 114 119 116 113 113 108 97 115 115 123 120 107 102 99 103 101 95 96 99 101 106 114 110 108 97 91 99 98 92 93 83 92 126 128 122 115 122 130 125 124 123 122 115 116 115 111 108 108 110
199 202 196 189 185 190 179 180 191 196 193 180 191 189 191 173 187 162 165 163 162 179 179 176 165 167 164 157 149 147 149 148 150 149 143 131 119 118 121 119 113 114 121 124 131 129 113 106 110 110 109 102 107 101 102 98 105 110 115 115 115 108 106 111 113 111 108 115 147 149 140 129 132 125 122 126 127 120 121 118 117 119 118 117 116
208 207 202 198 191 188 179 185 187 193 197 191 196 190 194 185 175 179 177 161 173 165 171 168 172 171 168 162 158 150 155 150 159 157 149 144 124 128 132 125 122 126 134 140 146 133 126 127 125 121 118 119 117 115 112 104 106 108 118 118 116 120 125 129 131 124 118 105 149 144 141 142 133 134 141 139 137 136 129 120 122 123 126 127 121
209 207 199 203 193 188 187 190 188 192 196 192 204 200 194 202 186 186 178 167 176 165 155 170 180 172 173 175 170 165 166 160 166 159 156 146 138 130 129 136 137 137 144 144 159 137 134 132 123 122 122 121 116 106 115 107 90 91 91 106 95 103 133 140 141 128 116 124 142 147 156 130 133 138 140 137 139 131 128 129 130 132 131 126 124
199 208 208 206 196 193 196 192 189 185 189 200 197 203 197 200 195 187 177 174 177 160 164 162 166 183 179 179 173 174 164 161 166 162 162 157 155 149 148 146 147 155 151 136 139 138 129 129 135 134 130 120 101 99 104 107 101 84 67 81 81 73 53 20 59 80 96 89 97 122 191 162 150 147 153 149 145 145 139 136 138 140 137 130 132
209 211 208 193 191 202 202 197 195 184 191 199 197 197 201 202 195 190 191 176 170 173 172 166 163 174 177 179 182 171 172 165 170 168 168 164 166 158 154 161 159 157 154 142 136 129 114 102 87 78 91 96 100 92 72 103 98 76 54 53 52 62 44 16 22 34 44 54 34 30 44 12 137 155 163 152 152 158 140 137 145 147 143 138 137
215 211 207 199 200 192 200 205 201 193 192 200 200 199 197 193 197 202 186 178 179 176 178 177 171 163 170 175 173 170 177 175 174 176 169 172 168 161 162 169 161 155 148 140 132 129 122 113 101 105 98 96 96 93 78 81 86 77 70 49 41 45 46 53 58 54 52 93 108 35 63 2 11 335 163 151 162 174 153 154 153 153 152 147 143
210 210 207 211 206 205 195 186 191 195 194 193 200 202 198 192 191 198 193 187 188 184 183 181 181 183 171 172 177 175 175 179 172 176 181 180 182 179 167 163 164 157 151 152 150 152 144 137 134 128 127 130 127 120 129 110 86 86 77 62 58 30 15 31 15 6 346 1 7 27 11 13 6 19 357 153 172 173 148 151 164 155 158 151 148
205 208 212 213 204 207 196 206 192 202 195 199 203 208 194 191 192 195 196 187 201 193 182 181 182 182 182 182 174 171 176 176 180 173 181 180 181 177 180 169 152 161 167 174 161 161 157 159 159 148 152 145 138 141 136 117 110 88 70 57 54 41 25 25 18 19 5 353 356 7 7 23 19 5 354 20 348 204 164 169 162 152 160 158 153
211 210 210 206 214 209 201 207 195 203 201 201 203 209 206 196 191 192 194 192 192 205 193 183 181 182 186 185 186 177 180 177 177 181 176 184 183 184 184 157 163 161 166 176 176 161 158 150 179 162 152 163 155 153 154 141 128 104 76 72 49 29 47 29 23 21 3 344 1 359 6 8 21 29 344 345 359 321 173 173 159 159 165 169 167
212 208 206 204 214 210 207 209 208 208 206 199 202 204 199 200 198 199 200 196 196 198 199 188 192 195 191 190 190 189 191 188 184 184 181 184 189 189 181 168 162 166 162 164 178 184 167 163 171 193 212 158 162 144 147 145 136 126 117 103 82 83 71 36 29 9 346 20 354 355 357 357 355 1 8 335 318 53 54 77 142 165 174 177 172
216 214 210 206 211 208 208 211 212 209 212 209 203 210 205 184 184 193 208 199 202 203 203 196 187 180 185 198 198 201 201 197 187 184 190 190 186 183 174 171 171 171 174 171 174 167 170 171 167 185 174 151 169 161 155 148 141 138 129 116 119 120 114 102 65 19 7 1 357 357 347 333 334 4 347 341 314 313 134 93 91 89 100 178 192
213 212 210 213 212 213 213 214 214 210 211 208 205 208 215 228 234 219 207 213 194 188 192 205 193 182 188 187 188 192 195 199 194 191 195 191 189 186 177 165 169 179 168 169 171 171 169 180 169 155 138 138 159 144 138 139 122 111 103 82 50 48 121 111 108 136 78 22 347 338 306 326 324 355 355 335 321 291 163 131 121 137 105 66 53
213 207 210 209 212 212 212 217 213 210 207 211 206 196 193 198 208 226 239 230 220 205 198 209 209 204 199 192 193 195 196 193 195 201 205 195 192 184 182 170 168 160 171 177 181 183 183 175 175 158 135 94 76 117 126 125 101 71 53 63 40 341 348 35 129 164 100 180 231 256 283 274 310 355 5 351 323 309 301 135 123 123 123 46 57
214 208 208 212 210 209 200 214 208 201 200 201 204 210 207 197 200 202 214 218 221 216 209 205 205 215 207 196 191 194 195 203 203 188 190 192 197 195 180 175 174 175 179 193 190 180 160 158 134 153 152 138 148 152 158 141 131 90 28 23 343 323 313 296 247 205 202 227 216 216 258 297 316 352 358 337 304 304 298 322 120 152 120 174 36
219 206 211 213 210 207 208 215 192 200 205 202 200 201 209 212 204 208 206 196 188 195 203 197 193 188 199 192 192 194 196 196 196 198 197 194 189 177 177 173 180 188 187 176 165 168 164 159 156 139 202 162 156 170 169 144 188 187 163 218 303 258 223 253 260 229 208 216 221 235 193 240 265 301 350 313 301 288 290 310 211 159 158 135 322
213 206 218 212 208 208 214 208 197 196 204 201 197 205 203 209 214 222 213 225 228 227 233 218 193 193 200 205 201 203 202 200 195 197 196 190 187 182 187 176 181 182 177 179 177 171 173 168 175 171 162 159 108 157 184 203 156 97 93 80 232 231 235 243 228 235 197 195 191 214 192 206 256 288 300 298 280 286 282 272 244 196 170 150 170
229 217 211 210 208 211 211 203 200 198 197 199 204 206 201 203 211 216 204 205 200 196 213 259 226 215 220 205 206 204 198 195 188 187 192 189 189 192 190 182 180 177 186 187 186 183 170 171 183 186 164 157 183 190 209 201 150 143 186 208 145 180 296 235 222 223 186 194 193 218 187 205 198 219 231 240 246 283 294 305 330 313 306 217 147
224 223 209 208 206 212 209 200 197 195 193 190 193 189 171 167 141 78 84 82 48 151 187 216 214 216 216 206 212 203 210 201 192 192 191 195 198 198 188 187 183 181 182 183 184 194 188 182 177 170 179 181 184 186 200 212 214 219 150 121 65 288 228 325 181 225 155 208 217 207 199 200 193 198 214 217 206 255 276 289 310 327 310 323 308
241 233 214 214 205 203 191 191 187 183 187 183 182 178 184 178 157 161 178 189 205 189 199 209 208 207 212 207 200 206 216 219 204 196 195 196 195 195 196 197 202 201 199 204 205 187 175 180 186 186 192 198 178 160 190 217 223 228 225 226 146 185 183 185 145 238 94 238 231 208 214 208 194 193 195 210 221 227 217 235 211 225 222 243 250
254 239 222 209 201 196 190 188 187 183 177 174 175 179 187 189 191 199 204 205 213 218 217 221 216 216 209 200 208 203 213 214 213 202 189 198 206 200 195 191 191 188 191 192 188 190 194 194 187 198 205 207 179 189 188 193 197 242 235 238 187 188 216 143 211 60 252 173 228 211 225 212 209 205 202 210 209 211 222 221 219 217 213 209 209
266 276 239 207 193 193 180 182 177 174 176 171 178 184 191 192 197 205 208 212 213 221 206 219 216 192 200 215 213 213 212 220 222 218 205 192 199 203 199 198 194 194 187 200 205 204 200 194 192 199 203 199 197 201 197 171 179 209 212 224 226 230 241 276 279 214 201 181 217 194 263 224 212 226 222 215 213 209 218 217 222 222 225 221 208
279 234 218 198 189 171 166 160 170 170 178 177 181 190 194 193 198 203 212 219 220 225 192 198 207 202 213 210 212 218 216 218 221 223 218 213 204 205 193 191 191 191 189 203 203 195 198 196 200 200 205 201 202 214 201 193 197 209 175 222 223 219 218 264 327 239 212 223 240 175 217 152 230 241 222 207 213 212 213 216 214 215 211 221 216
303 241 177 158 149 147 153 161 170 175 173 179 185 189 193 190 198 204 212 217 212 209 162 196 208 188 216 215 215 217 217 217 218 219 219 214 215 210 210 207 204 195 192 203 201 200 201 205 205 206 210 213 210 213 218 210 212 217 204 208 204 206 236 264 243 207 262 229 241 203 204 184 208 230 211 197 213 213 214 217 218 212 211 218 212
3 48 57 86 117 138 146 153 171 163 173 177 182 189 191 192 201 204 210 215 208 204 200 211 190 154 208 215 212 217 214 220 215 223 220 219 224 214 212 210 196 190 192 198 202 197 193 192 198 201 209 209 207 208 216 223 210 215 219 200 208 201 208 212 220 211 216 220 238 247 233 210 222 235 197 201 189 201 203 209 212 209 204 208 206